Regional Weather Roundup
Issued by NWS

Home | Current Version | Previous Version | Text Only | Print | Product List | Glossary Off
Versions: 1 2 3 4 5 6 7 8 9 10 11 12 13 14 15 16 17 18 19 20 21 22 23 24 25 26 27 28 29 30 31 32 33 34 35 36 37 38 39 40 41 42 43 44 45 46 47 48 49 50

000
ASUS43 KLMK 250802
RWRKY
KENTUCKY REGIONAL WEATHER ROUNDUP
NATIONAL WEATHER SERVICE LOUISVILLE KY
400 AM EDT MON JUL 25 2016

NOTE "FAIR" INDICATES FEW OR NO CLOUDS BELOW 12,000 FEET
WITH NO SIGNIFICANT WEATHER AND/OR OBSTRUCTIONS TO VISIBILITY.

KYZ001>023-026-027-061>063-070>075-250900-
WESTERN AND SOUTH CENTRAL KENTUCKY

CITY           SKY/WX    TMP DP  RH WIND       PRES   REMARKS
PADUCAH        CLEAR     78  75  90 CALM      29.97S
HENDERSON      CLEAR     77  73  88 N5        29.98R
OWENSBORO      CLEAR     80  78  94 CALM      29.99F
HOPKINSVILLE   PTCLDY    78  74  87 N1        30.01S
BOWLING GREEN  MOCLDY    79  76  90 CALM      30.02S
GLASGOW        NOT AVBL
$$

KYZ024-025-028>034-038-045-046-053-250900-
NORTH CENTRAL KENTUCKY

CITY           SKY/WX    TMP DP  RH WIND       PRES   REMARKS
LOUISVILLE/SDF PTCLDY    82  74  76 SW3       30.00F
LOUISVILLE/LOU CLEAR     81  74  79 CALM      30.01F
FORT KNOX      PTCLDY    75  74  96 CALM      30.00F
$$

KYZ035>037-039>044-047>052-055>060-089>105-250900-
NORTHEAST KENTUCKY

CITY           SKY/WX    TMP DP  RH WIND       PRES   REMARKS
LEXINGTON      CLOUDY    78  73  84 CALM      30.04S
COVINGTON      PTCLDY    78  75  90 SW5       30.01S
FRANKFORT      CLEAR     77  73  87 CALM      30.02S
$$

KYZ054-064>069-076>088-106>120-250900-
SOUTHEAST KENTUCKY

CITY           SKY/WX    TMP DP  RH WIND       PRES   REMARKS
JACKSON        PTCLDY    76  74  93 CALM      30.06S
LONDON         CLEAR     75  71  87 CALM      30.07R
SOMERSET       CLOUDY    73  73 100 CALM      30.06S
MIDDLESBORO    MOCLDY    73  73  99 CALM      30.07S
MONTICELLO     SUNNY    N/A N/A N/A W3        30.07R
$$




USA.gov is the U.S. government's official web portal to all federal, state and local government web resources and services.